[[{"header":{"parameterUnit":"m.s-1","parameterCategory":2,"la1":30.2991,"la2":30.254,"lo1":-89.0895,"lo2":-89.0444,"dy":0.0017,"dx":0.0017,"nx":28,"ny":28,"refTime":"2024-04-14T21:00:00:Z","depth":"0","parameterNumber":2,"parameterNumberName":"U-component_of_CURRENTS"},"data":[0,0,0,0,0,0,0,0,0,0,0,0,0,0,0,0,0,0,0,0,0,0,0,0,0,0,0,0,0,0,0,0,0,0,0,0,0,0,0,0,0,0,0,0,0,0,0,0,0,0,0,0,0,0,0,0,0,0,-0.2697,-0.2698,0,-0.275,-0.275,-0.2751,-0.2715,-0.2713,-0.2712,-0.2711,-0.2728,-0.273,-0.2732,0,0,0,0,0,0,0,0,0,0,0,0,0,-0.2585,-0.2587,-0.2697,-0.2698,-0.2699,-0.275,-0.275,-0.2751,-0.2715,-0.2713,-0.2712,-0.271,-0.2727,-0.273,-0.2732,0,0,0,0,0,0,0,0,0,0,0,0,0,-0.2633,-0.2588,-0.2697,-0.2689,-0.2689,-0.275,-0.275,-0.2751,-0.2715,-0.2713,-0.2711,-0.2709,-0.2727,-0.2729,-0.2732,-0.2791,0,0,-0.274,-0.2741,0,0,0,0,0,0,0,0,-0.2631,-0.2637,-0.2689,-0.2689,-0.269,-0.2726,-0.2718,-0.2764,-0.2716,-0.2703,-0.2711,-0.2708,-0.2727,-0.273,-0.2741,-0.2792,-0.2793,-0.274,-0.2742,-0.2743,-0.2744,0,0,0,0,0,0,0,-0.2627,-0.2635,-0.2715,-0.269,-0.2691,-0.269,-0.2694,-0.2726,-0.2724,-0.2704,-0.2702,-0.2712,-0.2726,-0.2739,-0.2742,-0.2793,-0.274,-0.2743,-0.2744,-0.2745,-0.2816,-0.2816,0,0,0,0,0,0,-0.2627,-0.2632,-0.2714,-0.2717,-0.2657,-0.2694,-0.2698,-0.2714,-0.2724,-0.2725,-0.2714,-0.271,-0.2735,-0.2738,-0.2742,-0.274,-0.2743,-0.2746,-0.2747,-0.2816,-0.2816,-0.2816,0,0,0,0,0,0,-0.2625,-0.2635,-0.2712,-0.2677,-0.2687,-0.2698,-0.2716,-0.2716,-0.272,-0.2733,-0.2731,-0.2717,-0.2734,-0.2738,-0.2751,-0.2743,-0.2747,-0.2749,-0.2815,-0.2816,-0.2816,-0.2783,0,0,0,0,0,0,-0.2622,-0.2633,-0.264,-0.2677,-0.2689,-0.2733,-0.2719,-0.2719,-0.2732,-0.2727,-0.2736,-0.2735,-0.2733,-0.2747,-0.2754,-0.2747,-0.2751,-0.2815,-0.2816,-0.2816,-0.2783,-0.2782,-0.2781,0,0,0,0,0,-0.2618,-0.2633,-0.2641,-0.265,-0.27,-0.2733,-0.2739,-0.2737,-0.2734,-0.2734,-0.2735,-0.2734,-0.2754,-0.275,-0.2757,-0.2751,-0.2815,-0.2815,-0.2816,-0.2784,-0.2782,-0.2781,0,0,0,0,0,0,-0.2581,-0.2632,-0.2641,-0.2669,-0.2694,-0.2727,-0.2731,-0.2743,-0.2749,-0.2742,-0.2747,-0.2748,-0.2751,-0.2767,-0.2762,-0.2773,-0.2782,-0.2784,-0.2755,-0.2754,-0.2752,-0.2734,-0.2754,0,0,0,0,0,-0.2582,-0.2604,-0.265,-0.2667,-0.2683,-0.2711,-0.2725,-0.2732,-0.2747,-0.2747,-0.2755,-0.2762,-0.2766,-0.277,-0.2779,-0.2802,-0.2793,-0.2801,-0.2799,-0.2798,-0.2789,-0.2764,-0.2759,-0.2818,-0.2818,-0.2818,0,0,-0.2573,-0.2602,-0.2615,-0.2661,-0.2679,-0.2704,-0.2712,-0.2734,-0.2742,-0.2752,-0.2757,-0.2761,-0.2771,-0.2774,-0.2778,-0.2783,-0.2779,-0.2799,-0.2797,-0.2789,-0.2764,-0.2758,-0.2753,-0.2819,-0.2819,-0.2819,0,0,-0.2566,-0.2593,-0.2611,-0.2636,-0.2672,-0.2694,-0.2702,-0.274,-0.2738,-0.2761,-0.2753,-0.2745,-0.2781,-0.2762,-0.2764,-0.2768,-0.277,-0.2784,-0.2765,-0.2741,-0.2735,-0.273,-0.2716,-0.271,-0.2785,-0.2785,-0.2785,0,-0.2551,-0.2583,-0.2617,-0.264,-0.2657,-0.269,-0.2709,-0.2723,-0.2755,-0.2755,-0.2753,-0.2766,-0.2765,-0.2754,-0.2742,-0.276,-0.2759,-0.2767,-0.2736,-0.273,-0.2726,-0.2713,-0.2706,-0.2784,-0.2784,-0.2784,-0.2784,0,-0.2562,-0.2585,-0.2595,-0.2636,-0.2658,-0.2679,-0.2711,-0.2724,-0.2735,-0.2747,-0.2742,-0.2736,-0.2738,-0.2737,-0.2739,-0.2711,-0.2725,-0.2732,-0.2733,-0.2717,-0.2706,-0.2699,-0.2781,-0.2782,-0.2782,-0.2783,0,0,-0.2532,-0.2593,-0.2593,-0.2609,-0.2658,-0.2677,-0.2694,-0.2717,-0.2723,-0.2731,-0.2726,-0.2712,-0.2708,-0.2709,-0.2707,-0.2682,-0.2637,-0.2694,-0.2693,-0.2668,-0.2596,-0.2568,-0.2559,-0.2643,-0.2642,-0.2641,-0.2603,0,-0.2525,-0.256,-0.2596,-0.2619,-0.2639,-0.2675,-0.2688,-0.271,-0.2723,-0.2726,-0.2707,-0.2705,-0.27,-0.2697,-0.2667,-0.2654,-0.262,-0.2648,-0.2626,-0.2625,-0.2592,-0.255,-0.2506,-0.2465,-0.2597,-0.2596,-0.2595,0,-0.2516,-0.2543,-0.2568,-0.2611,-0.2623,-0.2639,-0.2665,-0.2684,-0.2698,-0.2708,-0.2699,-0.2701,-0.2667,-0.2662,-0.2611,-0.2636,-0.2605,-0.2587,-0.2586,-0.2564,-0.2585,-0.2503,-0.2449,-0.2438,-0.2585,-0.2586,-0.2587,0,-0.2464,-0.2516,-0.2531,-0.2549,-0.2608,-0.2614,-0.2637,-0.2667,-0.2683,-0.269,-0.2704,-0.2678,-0.2669,-0.2624,-0.2595,-0.2604,-0.2539,-0.2548,-0.2489,-0.2488,-0.2446,-0.2443,-0.2364,-0.2485,-0.2485,-0.2485,-0.2485,0,-0.2437,-0.2446,-0.2506,-0.2515,-0.2526,-0.2578,-0.259,-0.2615,-0.2649,-0.266,-0.2683,-0.2683,-0.2659,-0.2632,-0.2589,-0.2523,-0.2533,-0.2467,-0.2465,-0.2435,-0.2432,-0.2419,-0.2446,-0.2483,-0.2484,-0.2484,-0.2484,0,-0.2368,-0.2415,-0.2432,-0.2488,-0.2501,-0.2503,-0.256,-0.2575,-0.2623,-0.2638,-0.2642,-0.2681,-0.2651,-0.2623,-0.256,-0.252,-0.242,-0.2426,-0.2399,-0.2392,-0.232,-0.2349,-0.2245,-0.2176,-0.2347,-0.2346,-0.2345,0,-0.2334,-0.2337,-0.239,-0.24,-0.242,-0.2444,-0.2465,-0.2535,-0.256,-0.2629,-0.2627,-0.2635,-0.2621,-0.2544,-0.2471,-0.2387,-0.2367,-0.2302,-0.2291,-0.2289,-0.232,-0.2308,-0.2257,-0.2229,-0.2228,-0.2226,-0.2225,0,-0.2253,-0.2273,-0.2288,-0.2315,-0.2335,-0.236,-0.2395,-0.2419,-0.2502,-0.2538,-0.2571,-0.2572,-0.2534,-0.2451,-0.2366,-0.2301,-0.2262,-0.2268,-0.2265,-0.2209,-0.2192,-0.2135,-0.2301,-0.2212,-0.2213,-0.2214,-0.2215,-0.2215,-0.2172,-0.2167,-0.2192,-0.22,-0.223,-0.2242,-0.222,-0.2292,-0.2321,-0.2348,-0.2442,-0.2438,-0.2439,-0.2318,-0.2255,-0.2153,-0.2148,-0.2099,-0.2132,-0.2117,-0.2047,-0.2185,-0.2097,-0.2098,-0.2099,-0.2099,-0.21,0,-0.2062,-0.2069,-0.2079,-0.2082,-0.206,-0.2116,-0.2142,-0.2109,-0.2105,-0.2202,-0.2222,-0.2289,-0.2231,-0.2219,-0.2149,-0.2058,-0.1979,-0.2002,-0.1981,-0.193,-0.2048,-0.2039,-0.1936,-0.1936,-0.1936,-0.1936,-0.1936,-0.1936,-0.2004,-0.1969,-0.1976,-0.1892,-0.1895,-0.1816,-0.1799,-0.1791,-0.1829,-0.1867,-0.195,-0.2053,-0.2086,-0.2254,-0.2146,-0.2044,-0.1967,-0.1911,-0.1884,-0.2008,-0.202,-0.2032,-0.2026,-0.1922,-0.1923,-0.1699,-0.1698,-0.1697]},{"header":{"parameterUnit":"m.s-1","parameterCategory":2,"la1":30.2991,"la2":30.254,"lo1":-89.0895,"lo2":-89.0444,"dy":0.0017,"dx":0.0017,"nx":28,"ny":28,"refTime":"2024-04-14T21:00:00:Z","depth":"0","parameterNumber":3,"parameterNumberName":"V-component_of_CURRENTS"},"data":[0,0,0,0,0,0,0,0,0,0,0,0,0,0,0,0,0,0,0,0,0,0,0,0,0,0,0,0,0,0,0,0,0,0,0,0,0,0,0,0,0,0,0,0,0,0,0,0,0,0,0,0,0,0,0,0,0,0,-0.033,-0.0329,0,-0.0253,-0.0252,-0.0251,-0.0181,-0.018,-0.018,-0.0179,-0.0016,-0.0012,-0.0009,0,0,0,0,0,0,0,0,0,0,0,0,0,-0.0373,-0.0372,-0.033,-0.0329,-0.0329,-0.0254,-0.0252,-0.0251,-0.0181,-0.018,-0.0179,-0.0179,-0.0017,-0.0013,-0.0008,0,0,0,0,0,0,0,0,0,0,0,0,0,-0.033,-0.0372,-0.033,-0.0285,-0.0281,-0.0254,-0.0252,-0.0251,-0.0181,-0.018,-0.0179,-0.0178,-0.0019,-0.0013,-0.0008,0.0004,0,0,0.0009,0.0011,0,0,0,0,0,0,0,0,-0.0332,-0.0328,-0.0293,-0.0289,-0.0283,-0.0227,-0.0208,-0.0162,-0.0182,-0.0218,-0.0179,-0.0178,-0.008,-0.007,-0.0057,0.0012,0.0018,0.0009,0.0013,0.0015,0.0017,0,0,0,0,0,0,0,-0.0335,-0.0331,-0.0298,-0.0292,-0.0286,-0.0254,-0.0247,-0.0199,-0.0153,-0.0214,-0.0209,-0.0203,-0.0077,-0.0063,-0.0052,0.0021,0.0009,0.0014,0.0017,0.002,0.0126,0.0125,0,0,0,0,0,0,-0.0351,-0.0334,-0.0301,-0.0296,-0.0307,-0.0255,-0.0247,-0.0245,-0.0156,-0.0142,-0.0204,-0.02,-0.0072,-0.0059,-0.0046,-0.001,0.0015,0.002,0.0023,0.0126,0.0126,0.0125,0,0,0,0,0,0,-0.0352,-0.0349,-0.0304,-0.0314,-0.0306,-0.0256,-0.0254,-0.0244,-0.0228,-0.0149,-0.0133,-0.0198,-0.0071,-0.0054,-0.0008,-0.0004,0.0023,0.0028,0.0127,0.0126,0.0125,0.0052,0,0,0,0,0,0,-0.0354,-0.035,-0.0358,-0.0315,-0.0306,-0.0293,-0.0255,-0.0243,-0.0226,-0.022,-0.0138,-0.0122,-0.0069,-0.0017,-0.0003,0.0004,0.0032,0.0127,0.0126,0.0126,0.0055,0.0049,0.0044,0,0,0,0,0,-0.0356,-0.0373,-0.0359,-0.0355,-0.0318,-0.0294,-0.0286,-0.0245,-0.0227,-0.0225,-0.0173,-0.0125,-0.0012,-0.0013,0.0004,0.0013,0.0128,0.0127,0.0126,0.0058,0.005,0.0044,0,0,0,0,0,0,-0.0396,-0.0367,-0.035,-0.0357,-0.033,-0.0283,-0.0281,-0.0254,-0.0213,-0.0206,-0.0131,-0.0112,-0.0073,-0.0025,-0.0028,0.0039,0.0066,0.0068,0.0008,0.0002,-0.0003,-0.0009,0.0036,0,0,0,0,0,-0.0411,-0.0415,-0.0377,-0.0384,-0.0374,-0.033,-0.0317,-0.0289,-0.0247,-0.0229,-0.0173,-0.0115,-0.0066,-0.0029,0.0016,0.0056,0.0103,0.0072,0.0066,0.0061,0.0067,0.0127,0.0128,0.0122,0.0122,0.0122,0,0,-0.0429,-0.0414,-0.0416,-0.0393,-0.0369,-0.036,-0.0319,-0.0306,-0.0291,-0.0217,-0.0185,-0.0138,-0.0065,-0.0024,-0.0001,0.0021,0.0085,0.006,0.0055,0.0064,0.0126,0.0127,0.0128,0.0121,0.0121,0.0121,0,0,-0.0468,-0.0454,-0.0469,-0.045,-0.0422,-0.0392,-0.0391,-0.0348,-0.0321,-0.029,-0.0235,-0.0185,-0.0113,-0.0055,-0.0016,-0.0025,0.0042,-0.0014,-0.0029,0.0028,0.003,0.0031,0.008,0.0087,-0.0004,-0.0004,-0.0004,0,-0.0491,-0.0501,-0.047,-0.0474,-0.0462,-0.041,-0.0415,-0.0383,-0.0329,-0.0305,-0.0289,-0.0183,-0.0123,-0.0058,-0.006,-0.0035,0.0002,-0.001,0.0021,0.0024,0.0027,0.0077,0.0086,-0.0008,-0.0007,-0.0007,-0.0006,0,-0.0535,-0.0538,-0.0546,-0.0532,-0.0515,-0.0513,-0.0465,-0.0443,-0.0408,-0.0365,-0.0308,-0.0233,-0.0162,-0.014,-0.0097,-0.0045,-0.0025,-0.0004,0.0038,0.0024,0.0077,0.0087,-0.0013,-0.0012,-0.001,-0.001,0,0,-0.0589,-0.058,-0.058,-0.0583,-0.0545,-0.0537,-0.0514,-0.0472,-0.0451,-0.0393,-0.0354,-0.0272,-0.0226,-0.018,-0.012,-0.0062,-0.0011,-0.0026,-0.0022,0.002,0.0111,0.0162,0.0179,0.0013,0.0015,0.0016,0.0135,0,-0.063,-0.0661,-0.0633,-0.0647,-0.0658,-0.06,-0.0582,-0.0534,-0.0481,-0.0431,-0.0341,-0.0286,-0.0242,-0.0206,-0.0144,-0.0043,0.0014,-0.0046,0.0121,0.0126,0.0173,0.0192,0.0249,0.0364,0.0145,0.0147,0.0148,0,-0.0674,-0.0691,-0.0722,-0.0707,-0.0704,-0.0698,-0.0653,-0.0628,-0.0538,-0.0495,-0.0418,-0.0343,-0.0242,-0.0211,-0.0045,-0.0087,0.0004,0.0079,0.0086,0.0171,0.0198,0.0346,0.0391,0.0559,0.0165,0.0163,0.0162,0,-0.0735,-0.0743,-0.0773,-0.077,-0.0748,-0.0743,-0.0721,-0.0651,-0.0624,-0.053,-0.0497,-0.037,-0.0297,-0.0176,-0.0012,-0.0028,0.0171,0.017,0.0302,0.0306,0.0409,0.042,0.0639,0.0284,0.0284,0.0284,0.0283,0,-0.0789,-0.0808,-0.0807,-0.0826,-0.0852,-0.0806,-0.0804,-0.0761,-0.0689,-0.0651,-0.0537,-0.047,-0.0285,-0.0143,-0.0015,0.0186,0.0174,0.0311,0.0349,0.0383,0.039,0.0583,0.0641,0.0288,0.0287,0.0286,0.0286,0,-0.0848,-0.0847,-0.0883,-0.0882,-0.0885,-0.0903,-0.0874,-0.0864,-0.079,-0.0735,-0.0705,-0.0529,-0.0335,-0.0146,0.0082,0.0193,0.0481,0.0441,0.0466,0.0505,0.0764,0.0813,0.1051,0.1142,0.0597,0.0599,0.0601,0,-0.0881,-0.0909,-0.0941,-0.0971,-0.0975,-0.099,-0.0997,-0.093,-0.0904,-0.0765,-0.0736,-0.0531,-0.0365,-0.0014,0.0239,0.0492,0.06,0.0673,0.0656,0.0807,0.089,0.0909,0.0967,0.0759,0.0762,0.0764,0.0766,0,-0.0943,-0.0952,-0.0986,-0.1059,-0.1085,-0.1105,-0.1099,-0.109,-0.099,-0.0913,-0.0757,-0.0608,-0.0238,0.0114,0.045,0.059,0.0805,0.0728,0.0895,0.1051,0.1079,0.1173,0.0638,0.0787,0.0785,0.0784,0.0783,0.0782,-0.098,-0.1026,-0.1076,-0.1138,-0.1176,-0.1201,-0.1202,-0.1155,-0.1092,-0.0925,-0.0779,-0.051,0.0009,0.051,0.0687,0.1078,0.1,0.1174,0.1225,0.1232,0.1321,0.0826,0.1007,0.1006,0.1006,0.1005,0.1004,0,-0.1032,-0.1082,-0.1152,-0.1217,-0.1266,-0.1264,-0.1251,-0.1207,-0.1113,-0.0904,-0.0708,-0.0132,0.037,0.082,0.1379,0.1571,0.1595,0.1654,0.171,0.1747,0.1338,0.1348,0.16,0.16,0.16,0.1599,0.1599,0.1599,-0.1059,-0.1141,-0.1181,-0.1276,-0.1316,-0.1337,-0.132,-0.1215,-0.1056,-0.0678,-0.0333,-0.0055,0.0583,0.1517,0.2025,0.2045,0.2202,0.2172,0.2247,0.1982,0.1941,0.1902,0.1928,0.2298,0.2299,0.2647,0.2651,0.2654]}],[{"header":{"parameterUnit":"m.s-1","parameterCategory":2,"la1":30.2991,"la2":30.254,"lo1":-89.0895,"lo2":-89.0444,"dy":0.0017,"dx":0.0017,"nx":28,"ny":28,"refTime":"2024-04-14T21:00:00:Z","depth":"2","parameterNumber":2,"parameterNumberName":"U-component_of_CURRENTS"},"data":[0,0,0,0,0,0,0,0,0,0,0,0,0,0,0,0,0,0,0,0,0,0,0,0,0,0,0,0,0,0,0,0,0,0,0,0,0,0,0,0,0,0,0,0,0,0,0,0,0,0,0,0,0,0,0,0,0,0,-0.2564,-0.2565,0,-0.2616,-0.2616,-0.2617,-0.2586,-0.2585,-0.2583,-0.2582,-0.2594,-0.2596,-0.2597,0,0,0,0,0,0,0,0,0,0,0,0,0,-0.2459,-0.2461,-0.2564,-0.2565,-0.2566,-0.2616,-0.2616,-0.2617,-0.2586,-0.2585,-0.2583,-0.2582,-0.2594,-0.2595,-0.2597,0,0,0,0,0,0,0,0,0,0,0,0,0,-0.2505,-0.2461,-0.2564,-0.2558,-0.2558,-0.2616,-0.2616,-0.2617,-0.2586,-0.2585,-0.2583,-0.2581,-0.2593,-0.2595,-0.2598,-0.265,0,0,-0.2604,-0.2605,0,0,0,0,0,0,0,0,-0.2502,-0.2509,-0.2558,-0.2559,-0.2559,-0.2595,-0.2584,-0.2627,-0.2587,-0.2573,-0.2582,-0.258,-0.2594,-0.2596,-0.2607,-0.265,-0.2651,-0.2605,-0.2606,-0.2607,-0.2608,0,0,0,0,0,0,0,-0.2499,-0.2506,-0.2582,-0.2559,-0.256,-0.256,-0.2564,-0.2592,-0.2591,-0.2574,-0.2573,-0.2583,-0.2593,-0.2605,-0.2607,-0.2651,-0.2605,-0.2607,-0.2608,-0.2609,-0.2674,-0.2674,0,0,0,0,0,0,-0.2499,-0.2504,-0.2581,-0.2584,-0.2528,-0.2564,-0.2568,-0.2583,-0.2592,-0.2592,-0.2585,-0.2581,-0.2602,-0.2604,-0.2607,-0.2608,-0.2607,-0.2609,-0.261,-0.2673,-0.2674,-0.2674,0,0,0,0,0,0,-0.2497,-0.2506,-0.2578,-0.2546,-0.2556,-0.2568,-0.2585,-0.2585,-0.2592,-0.26,-0.2599,-0.259,-0.2601,-0.2604,-0.2617,-0.261,-0.261,-0.2612,-0.2673,-0.2673,-0.2674,-0.2649,0,0,0,0,0,0,-0.2494,-0.2505,-0.2512,-0.2547,-0.2558,-0.2599,-0.2587,-0.2588,-0.2602,-0.2598,-0.2605,-0.2604,-0.2599,-0.2614,-0.2619,-0.2613,-0.2614,-0.2672,-0.2673,-0.2674,-0.2649,-0.2648,-0.2648,0,0,0,0,0,-0.249,-0.2504,-0.2512,-0.2521,-0.2568,-0.26,-0.2605,-0.2606,-0.2604,-0.2605,-0.2607,-0.2603,-0.2621,-0.2616,-0.2623,-0.2617,-0.2672,-0.2673,-0.2674,-0.2649,-0.2648,-0.2648,0,0,0,0,0,0,-0.2455,-0.2504,-0.2512,-0.2539,-0.2563,-0.2595,-0.2599,-0.2613,-0.262,-0.2614,-0.2617,-0.2617,-0.2621,-0.2634,-0.2628,-0.2638,-0.2644,-0.2646,-0.2623,-0.2622,-0.2622,-0.2604,-0.2616,0,0,0,0,0,-0.2457,-0.2478,-0.2521,-0.2538,-0.2553,-0.2581,-0.2595,-0.2602,-0.2618,-0.2619,-0.2626,-0.2632,-0.2635,-0.2639,-0.2646,-0.2666,-0.2656,-0.2665,-0.2664,-0.2664,-0.2654,-0.2631,-0.2626,-0.2677,-0.2677,-0.2677,0,0,-0.2449,-0.2476,-0.2489,-0.2532,-0.255,-0.2574,-0.2582,-0.2605,-0.2614,-0.2623,-0.2629,-0.2633,-0.264,-0.2644,-0.2648,-0.2651,-0.2647,-0.2665,-0.2664,-0.2655,-0.2631,-0.2625,-0.2621,-0.2677,-0.2677,-0.2677,0,0,-0.2442,-0.2468,-0.2485,-0.2509,-0.2545,-0.2566,-0.2575,-0.2612,-0.2612,-0.2636,-0.2629,-0.2622,-0.2655,-0.2636,-0.2636,-0.2644,-0.2643,-0.2659,-0.2642,-0.2619,-0.2614,-0.261,-0.2596,-0.2591,-0.266,-0.266,-0.266,0,-0.243,-0.2459,-0.2492,-0.2514,-0.2531,-0.2563,-0.2583,-0.2597,-0.2629,-0.263,-0.263,-0.2644,-0.2641,-0.263,-0.2621,-0.2637,-0.2636,-0.2642,-0.2615,-0.2611,-0.2606,-0.2594,-0.2588,-0.2659,-0.2659,-0.2659,-0.2659,0,-0.244,-0.2462,-0.2472,-0.2511,-0.2533,-0.2554,-0.2585,-0.2599,-0.2612,-0.2625,-0.2623,-0.2618,-0.262,-0.2619,-0.2621,-0.2595,-0.2608,-0.2614,-0.2611,-0.2599,-0.2588,-0.2582,-0.2657,-0.2658,-0.2658,-0.2658,0,0,-0.2411,-0.247,-0.247,-0.2486,-0.2534,-0.2552,-0.257,-0.2593,-0.2601,-0.2612,-0.2609,-0.2597,-0.2595,-0.2595,-0.2593,-0.2569,-0.253,-0.258,-0.258,-0.2556,-0.2491,-0.2463,-0.2454,-0.2536,-0.2535,-0.2534,-0.2497,0,-0.2405,-0.2439,-0.2473,-0.2497,-0.2516,-0.2552,-0.2566,-0.2588,-0.2604,-0.2609,-0.2592,-0.2592,-0.2588,-0.2587,-0.2558,-0.2546,-0.2513,-0.254,-0.2516,-0.2515,-0.2481,-0.2445,-0.2266,-0.2214,-0.2491,-0.249,-0.2489,0,-0.2396,-0.2423,-0.2448,-0.2491,-0.2503,-0.252,-0.2547,-0.2567,-0.2582,-0.2594,-0.2589,-0.2591,-0.256,-0.2555,-0.2507,-0.2532,-0.2501,-0.2484,-0.2482,-0.2456,-0.2475,-0.2271,-0.2193,-0.248,-0.248,-0.2481,-0.2482,0,-0.2347,-0.2399,-0.2415,-0.2432,-0.249,-0.2498,-0.2522,-0.2552,-0.2569,-0.258,-0.2595,-0.2571,-0.2564,-0.2522,-0.2493,-0.2502,-0.2439,-0.2447,-0.2388,-0.2387,-0.2227,-0.2214,-0.2386,-0.2386,-0.2386,-0.2386,-0.2386,0,-0.2322,-0.2332,-0.2392,-0.2401,-0.2414,-0.2465,-0.248,-0.2505,-0.2541,-0.2553,-0.2577,-0.2578,-0.2556,-0.253,-0.2488,-0.2422,-0.2433,-0.2367,-0.2364,-0.2217,-0.2203,-0.2432,-0.2438,-0.2385,-0.2385,-0.2386,-0.2386,0,-0.2257,-0.2303,-0.2321,-0.2377,-0.2391,-0.2395,-0.2454,-0.2469,-0.2518,-0.2534,-0.2539,-0.2578,-0.2549,-0.2521,-0.246,-0.2421,-0.2358,-0.2327,-0.2164,-0.2142,-0.2323,-0.2328,-0.2252,-0.225,-0.2249,-0.2248,-0.2247,0,-0.2224,-0.2228,-0.2282,-0.2293,-0.2315,-0.2341,-0.2362,-0.2432,-0.2457,-0.2525,-0.2523,-0.2532,-0.2513,-0.2438,-0.2342,-0.2253,-0.2314,-0.2063,-0.2033,-0.2299,-0.2304,-0.2312,-0.2318,-0.1813,-0.1809,-0.1805,-0.1802,0,-0.2148,-0.2169,-0.2184,-0.2212,-0.2234,-0.2259,-0.2295,-0.2318,-0.24,-0.2432,-0.2462,-0.246,-0.2399,-0.2233,-0.214,-0.2063,-0.2066,-0.199,-0.2275,-0.1893,-0.1886,-0.1893,-0.1913,-0.177,-0.1774,-0.1776,-0.1778,-0.1779,-0.2071,-0.2068,-0.2093,-0.2103,-0.2134,-0.2145,-0.2123,-0.2181,-0.2204,-0.2192,-0.2296,-0.2212,-0.219,-0.1944,-0.1844,-0.1746,-0.1881,-0.1792,-0.1802,-0.1816,-0.1789,-0.1782,-0.1642,-0.1644,-0.1646,-0.1648,-0.165,0,-0.1961,-0.1974,-0.1984,-0.1989,-0.1963,-0.2024,-0.2048,-0.1985,-0.1959,-0.1982,-0.1966,-0.1754,-0.1667,-0.1635,-0.1439,-0.1422,-0.1387,-0.1368,-0.1315,-0.1348,-0.1377,-0.1327,-0.1057,-0.1056,-0.1054,-0.1053,0,0,-0.1904,-0.1869,-0.1875,-0.1793,-0.1801,-0.171,-0.1691,-0.1625,-0.1593,-0.1487,-0.1435,-0.1536,-0.1589,-0.1315,-0.1261,-0.1128,-0.1222,-0.1072,-0.1546,-0.1515,-0.1542,-0.1619,-0.158,0,0,0,0,0]},{"header":{"parameterUnit":"m.s-1","parameterCategory":2,"la1":30.2991,"la2":30.254,"lo1":-89.0895,"lo2":-89.0444,"dy":0.0017,"dx":0.0017,"nx":28,"ny":28,"refTime":"2024-04-14T21:00:00:Z","depth":"2","parameterNumber":3,"parameterNumberName":"V-component_of_CURRENTS"},"data":[0,0,0,0,0,0,0,0,0,0,0,0,0,0,0,0,0,0,0,0,0,0,0,0,0,0,0,0,0,0,0,0,0,0,0,0,0,0,0,0,0,0,0,0,0,0,0,0,0,0,0,0,0,0,0,0,0,0,-0.0359,-0.0358,0,-0.0285,-0.0284,-0.0283,-0.0214,-0.0213,-0.0212,-0.0212,-0.0055,-0.0052,-0.0049,0,0,0,0,0,0,0,0,0,0,0,0,0,-0.04,-0.0399,-0.0359,-0.0358,-0.0358,-0.0285,-0.0284,-0.0282,-0.0214,-0.0213,-0.0212,-0.0211,-0.0057,-0.0052,-0.0048,0,0,0,0,0,0,0,0,0,0,0,0,0,-0.0358,-0.0399,-0.0359,-0.0316,-0.0311,-0.0285,-0.0283,-0.0282,-0.0214,-0.0213,-0.0212,-0.0211,-0.0058,-0.0053,-0.0048,-0.0037,0,0,-0.0032,-0.0029,0,0,0,0,0,0,0,0,-0.0361,-0.0357,-0.0323,-0.0319,-0.0313,-0.0258,-0.024,-0.0196,-0.0214,-0.025,-0.0212,-0.021,-0.0117,-0.0107,-0.0095,-0.003,-0.0023,-0.0031,-0.0028,-0.0026,-0.0024,0,0,0,0,0,0,0,-0.0364,-0.0359,-0.0328,-0.0322,-0.0316,-0.0285,-0.0278,-0.0232,-0.0188,-0.0246,-0.0242,-0.0236,-0.0114,-0.01,-0.0091,-0.0021,-0.0031,-0.0027,-0.0023,-0.0021,0.0082,0.0081,0,0,0,0,0,0,-0.0379,-0.0362,-0.0331,-0.0326,-0.0336,-0.0286,-0.0278,-0.0276,-0.019,-0.0177,-0.0237,-0.0233,-0.011,-0.0097,-0.0085,-0.0049,-0.0026,-0.0021,-0.0018,0.0082,0.0082,0.0081,0,0,0,0,0,0,-0.038,-0.0377,-0.0334,-0.0343,-0.0335,-0.0286,-0.0285,-0.0275,-0.0259,-0.0184,-0.0169,-0.023,-0.0108,-0.0092,-0.0047,-0.0043,-0.0019,-0.0014,0.0082,0.0082,0.0081,0.0012,0,0,0,0,0,0,-0.0382,-0.0378,-0.0386,-0.0345,-0.0336,-0.0323,-0.0286,-0.0275,-0.0258,-0.0252,-0.0173,-0.0158,-0.0106,-0.0056,-0.0042,-0.0035,-0.001,0.0083,0.0082,0.0081,0.0015,0.0009,0.0004,0,0,0,0,0,-0.0384,-0.0401,-0.0387,-0.0383,-0.0347,-0.0324,-0.0317,-0.0276,-0.0259,-0.0257,-0.0205,-0.016,-0.0051,-0.0052,-0.0036,-0.0027,0.0083,0.0082,0.0082,0.0017,0.001,0.0004,0,0,0,0,0,0,-0.0422,-0.0394,-0.0378,-0.0386,-0.0359,-0.0313,-0.0311,-0.0285,-0.0245,-0.0237,-0.0165,-0.0147,-0.0109,-0.0063,-0.0067,-0.0001,0.0024,0.0026,-0.003,-0.0036,-0.0041,-0.0046,-0.0005,0,0,0,0,0,-0.0437,-0.0441,-0.0405,-0.0411,-0.0402,-0.0359,-0.0346,-0.0319,-0.0278,-0.0259,-0.0206,-0.0149,-0.0102,-0.0066,-0.0023,0.0016,0.0062,0.0031,0.0026,0.0021,0.0027,0.0089,0.009,0.0078,0.0078,0.0078,0,0,-0.0454,-0.044,-0.0442,-0.042,-0.0397,-0.0388,-0.0348,-0.0335,-0.032,-0.0248,-0.0217,-0.0172,-0.0101,-0.0061,-0.0038,-0.0017,0.0046,0.002,0.0016,0.0025,0.0088,0.0089,0.009,0.0077,0.0078,0.0078,0,0,-0.0492,-0.0479,-0.0494,-0.0475,-0.0448,-0.0418,-0.0418,-0.0375,-0.0349,-0.0318,-0.0264,-0.0215,-0.0146,-0.0089,-0.0051,-0.0059,0.0006,-0.0048,-0.0062,-0.0004,-0.0002,0.0,0.0048,0.0055,-0.0039,-0.0039,-0.0039,0,-0.0515,-0.0524,-0.0494,-0.0498,-0.0486,-0.0436,-0.044,-0.0409,-0.0356,-0.0332,-0.0317,-0.0212,-0.0155,-0.009,-0.0091,-0.0068,-0.0031,-0.0044,-0.001,-0.0007,-0.0003,0.0046,0.0054,-0.0042,-0.0042,-0.0041,-0.0041,0,-0.0556,-0.056,-0.0567,-0.0553,-0.0537,-0.0535,-0.0487,-0.0466,-0.0431,-0.0389,-0.0332,-0.0259,-0.0189,-0.0167,-0.0126,-0.0073,-0.0055,-0.0035,0.0005,-0.0006,0.0046,0.0056,-0.0047,-0.0046,-0.0045,-0.0044,0,0,-0.061,-0.0601,-0.06,-0.0603,-0.0565,-0.0557,-0.0534,-0.0491,-0.047,-0.0413,-0.0373,-0.0292,-0.0248,-0.0203,-0.0145,-0.0087,-0.0034,-0.0053,-0.0048,-0.0008,0.0087,0.0132,0.0148,-0.0011,-0.0009,-0.0008,0.011,0,-0.0648,-0.0678,-0.0651,-0.0663,-0.0672,-0.0616,-0.0597,-0.0549,-0.0498,-0.0447,-0.0358,-0.0303,-0.0261,-0.0226,-0.0164,-0.0066,-0.0009,-0.0068,0.0095,0.01,0.014,0.0161,0.0104,0.0207,0.012,0.0122,0.0123,0,-0.0691,-0.0707,-0.0735,-0.0719,-0.0716,-0.0709,-0.0664,-0.0638,-0.0548,-0.0506,-0.043,-0.0356,-0.0256,-0.0227,-0.0063,-0.0105,-0.0016,0.0058,0.0064,0.0142,0.0165,0.0208,0.023,0.0141,0.014,0.0138,0.0137,0,-0.075,-0.0756,-0.0784,-0.0781,-0.0758,-0.0752,-0.073,-0.0659,-0.0633,-0.0539,-0.0506,-0.038,-0.0309,-0.0188,-0.003,-0.0045,0.015,0.015,0.0274,0.0278,0.0282,0.0284,0.0265,0.0265,0.0264,0.0264,0.0264,0,-0.0801,-0.0819,-0.0817,-0.0834,-0.0858,-0.0812,-0.0808,-0.0767,-0.0694,-0.0657,-0.0544,-0.0478,-0.0295,-0.0157,-0.0032,0.0162,0.0154,0.0284,0.032,0.0255,0.0253,0.0238,0.0234,0.0268,0.0268,0.0267,0.0266,0,-0.0858,-0.0857,-0.089,-0.0888,-0.0891,-0.0907,-0.0878,-0.0866,-0.0793,-0.0739,-0.0709,-0.0536,-0.0347,-0.0162,0.0062,0.0169,0.0341,0.0409,0.032,0.0344,0.0424,0.0414,0.0554,0.0556,0.0559,0.0561,0.0562,0,-0.089,-0.0917,-0.0946,-0.0976,-0.0979,-0.0992,-0.0998,-0.0931,-0.0905,-0.0769,-0.0741,-0.0542,-0.0383,-0.004,0.0184,0.0424,0.0423,0.0512,0.0481,0.0438,0.0458,0.0444,0.0432,0.045,0.0451,0.0451,0.0452,0,-0.095,-0.0959,-0.0991,-0.1061,-0.1087,-0.1105,-0.1098,-0.1088,-0.099,-0.0915,-0.0765,-0.0623,-0.0285,-0.0007,0.031,0.0431,0.0467,0.0531,0.0527,0.0388,0.0351,0.0367,0.0356,0.0456,0.0455,0.0455,0.0455,0.0455,-0.0987,-0.1031,-0.1079,-0.1139,-0.1175,-0.1199,-0.12,-0.1154,-0.1092,-0.0942,-0.08,-0.0569,-0.0289,0.0159,0.038,0.0563,0.0556,0.0589,0.0583,0.0578,0.0547,0.0516,0.0646,0.0647,0.0647,0.0648,0.0648,0,-0.1035,-0.1086,-0.1154,-0.1217,-0.1262,-0.1262,-0.1249,-0.1206,-0.1116,-0.0952,-0.0773,-0.0471,-0.0147,0.0131,0.0429,0.0625,0.0582,0.0647,0.0549,0.0544,0.0539,0.0502,0.0592,0.0593,0.0593,0.0594,0,0,-0.1062,-0.114,-0.1179,-0.1272,-0.1313,-0.1333,-0.1317,-0.1223,-0.1093,-0.0911,-0.0736,-0.0483,-0.0145,0.0066,0.0305,0.0459,0.0447,0.0462,0.0481,0.033,0.0323,0.0476,0.041,0,0,0,0,0]}],[{"header":{"parameterUnit":"m.s-1","parameterCategory":2,"la1":30.2991,"la2":30.254,"lo1":-89.0895,"lo2":-89.0444,"dy":0.0017,"dx":0.0017,"nx":28,"ny":28,"refTime":"2024-04-14T21:00:00:Z","depth":"4","parameterNumber":2,"parameterNumberName":"U-component_of_CURRENTS"},"data":[0,0,0,0,0,0,0,0,0,0,0,0,0,0,0,0,0,0,0,0,0,0,0,0,0,0,0,0,0,0,0,0,0,0,0,0,0,0,0,0,0,0,0,0,0,0,0,0,0,0,0,0,0,0,0,0,0,0,-0.1696,-0.1697,0,-0.1786,-0.1787,-0.1788,-0.1827,-0.1827,-0.1826,-0.1826,-0.1908,-0.191,-0.1912,0,0,0,0,0,0,0,0,0,0,0,0,0,-0.1582,-0.1584,-0.1696,-0.1697,-0.1698,-0.1786,-0.1787,-0.1788,-0.1827,-0.1827,-0.1826,-0.1826,-0.1907,-0.191,-0.1912,0,0,0,0,0,0,0,0,0,0,0,0,0,-0.1647,-0.1584,-0.1695,-0.1728,-0.1732,-0.1786,-0.1787,-0.1789,-0.1827,-0.1827,-0.1826,-0.1826,-0.1906,-0.191,-0.1913,-0.1936,0,0,-0.1923,-0.1925,0,0,0,0,0,0,0,0,-0.1643,-0.1651,-0.1722,-0.1726,-0.1731,-0.1796,-0.1777,-0.1838,-0.1827,-0.179,-0.1826,-0.1826,-0.187,-0.1877,-0.1893,-0.194,-0.1943,-0.1923,-0.1925,-0.1927,-0.1928,0,0,0,0,0,0,0,-0.1639,-0.1647,-0.173,-0.1724,-0.1729,-0.1748,-0.1757,-0.1789,-0.1829,-0.1793,-0.1796,-0.1808,-0.1872,-0.1889,-0.1895,-0.1944,-0.1923,-0.1926,-0.1928,-0.193,-0.2051,-0.2052,0,0,0,0,0,0,-0.1628,-0.1643,-0.1728,-0.1733,-0.1687,-0.175,-0.176,-0.1774,-0.1829,-0.1837,-0.1808,-0.1809,-0.1884,-0.1891,-0.1898,-0.1959,-0.1927,-0.193,-0.1932,-0.2049,-0.2051,-0.2052,0,0,0,0,0,0,-0.1626,-0.1635,-0.1724,-0.1691,-0.1703,-0.1752,-0.1768,-0.1776,-0.1821,-0.184,-0.1848,-0.1847,-0.1884,-0.1893,-0.1947,-0.1961,-0.1932,-0.1935,-0.2048,-0.205,-0.2052,-0.2061,0,0,0,0,0,0,-0.1622,-0.1634,-0.1655,-0.169,-0.1705,-0.1765,-0.1769,-0.1778,-0.1827,-0.183,-0.1876,-0.1882,-0.1884,-0.1942,-0.195,-0.1965,-0.1937,-0.2047,-0.2049,-0.2051,-0.2059,-0.2063,-0.2066,0,0,0,0,0,-0.1618,-0.164,-0.1656,-0.1667,-0.1728,-0.1766,-0.1776,-0.1808,-0.1829,-0.1849,-0.1884,-0.1882,-0.1962,-0.1946,-0.1956,-0.1971,-0.2045,-0.2048,-0.2051,-0.2058,-0.2062,-0.2066,0,0,0,0,0,0,-0.1601,-0.1647,-0.1665,-0.1701,-0.1737,-0.1773,-0.1801,-0.1828,-0.1875,-0.1888,-0.1906,-0.1914,-0.1961,-0.1974,-0.1956,-0.2014,-0.2,-0.2005,-0.2003,-0.2007,-0.2011,-0.199,-0.194,0,0,0,0,0,-0.1608,-0.1638,-0.1679,-0.171,-0.173,-0.1774,-0.1802,-0.1827,-0.1865,-0.1888,-0.1921,-0.1954,-0.1977,-0.1999,-0.2022,-0.2065,-0.2049,-0.208,-0.2084,-0.2086,-0.2077,-0.2064,-0.2065,-0.2061,-0.2061,-0.2061,0,0,-0.1612,-0.164,-0.166,-0.1709,-0.1741,-0.1775,-0.1791,-0.1839,-0.1869,-0.1889,-0.195,-0.1972,-0.1992,-0.2028,-0.205,-0.2044,-0.2082,-0.209,-0.2092,-0.2081,-0.2067,-0.2067,-0.2067,-0.2063,-0.2063,-0.2062,0,0,-0.162,-0.1659,-0.1684,-0.1717,-0.177,-0.1796,-0.1817,-0.1873,-0.1901,-0.1961,-0.1972,-0.2,-0.2063,-0.206,-0.2069,-0.211,-0.2099,-0.2132,-0.2136,-0.2124,-0.2123,-0.2123,-0.2107,-0.2105,-0.2135,-0.2135,-0.2135,0,-0.1625,-0.1661,-0.1698,-0.1728,-0.176,-0.1808,-0.1842,-0.1876,-0.1944,-0.1966,-0.1983,-0.2051,-0.2066,-0.2085,-0.2095,-0.2113,-0.2111,-0.2116,-0.2126,-0.2124,-0.2123,-0.2108,-0.2105,-0.2136,-0.2136,-0.2136,-0.2136,0,-0.1643,-0.1685,-0.1703,-0.1756,-0.1793,-0.1833,-0.1879,-0.1924,-0.1971,-0.1999,-0.2048,-0.2068,-0.2101,-0.2112,-0.2118,-0.2125,-0.2127,-0.2127,-0.2107,-0.2124,-0.2107,-0.2104,-0.2137,-0.2137,-0.2137,-0.2137,0,0,-0.1617,-0.1701,-0.171,-0.1743,-0.1816,-0.1844,-0.1897,-0.1948,-0.1983,-0.2037,-0.2069,-0.2099,-0.2113,-0.2123,-0.2133,-0.2123,-0.2111,-0.2129,-0.2128,-0.21,-0.209,-0.1974,-0.1959,-0.2121,-0.2121,-0.212,-0.2082,0,-0.1623,-0.168,-0.1724,-0.1785,-0.1819,-0.1879,-0.1921,-0.1973,-0.2021,-0.2063,-0.2076,-0.2114,-0.2117,-0.2139,-0.2128,-0.2123,-0.2104,-0.2121,-0.209,-0.2089,-0.1971,-0.1951,-0.2119,-0.2079,-0.2079,-0.2078,-0.2078,0,-0.1615,-0.166,-0.1721,-0.1802,-0.1824,-0.1869,-0.1943,-0.1988,-0.2045,-0.2081,-0.2112,-0.2133,-0.2137,-0.2134,-0.2113,-0.2132,-0.2108,-0.2092,-0.2091,-0.1971,-0.1965,-0.2061,-0.2072,-0.2072,-0.2073,-0.2073,-0.2073,0,-0.1561,-0.1652,-0.1703,-0.1733,-0.1832,-0.1873,-0.1926,-0.1996,-0.2034,-0.2092,-0.2123,-0.2137,-0.2154,-0.2127,-0.2105,-0.2117,-0.2067,-0.2076,-0.1942,-0.1935,-0.2048,-0.205,-0.2036,-0.2036,-0.2036,-0.2036,-0.2036,0,-0.1531,-0.1574,-0.169,-0.1717,-0.1777,-0.1855,-0.1918,-0.1971,-0.2041,-0.2068,-0.2128,-0.2135,-0.2156,-0.2138,-0.2104,-0.2005,-0.2064,-0.1922,-0.1906,-0.2056,-0.2059,-0.2046,-0.2048,-0.2035,-0.2035,-0.2035,-0.2035,0,-0.1456,-0.1536,-0.1599,-0.1715,-0.1754,-0.1796,-0.191,-0.1945,-0.2029,-0.2063,-0.2083,-0.214,-0.211,-0.2105,-0.206,-0.1991,-0.1915,-0.1864,-0.2021,-0.2019,-0.1794,-0.1797,-0.1702,-0.1697,-0.1693,-0.169,-0.1687,0,-0.1418,-0.1447,-0.1579,-0.162,-0.1679,-0.1761,-0.1811,-0.1919,-0.195,-0.204,-0.2034,-0.2057,-0.2069,-0.1905,-0.1922,-0.1831,-0.1809,-0.1767,-0.1771,-0.176,-0.1755,-0.1764,-0.1773,-0.1681,-0.168,-0.1679,-0.1678,0,-0.134,-0.1403,-0.1456,-0.154,-0.1609,-0.1668,-0.1746,-0.1758,-0.1863,-0.1962,-0.1923,-0.1891,-0.1856,-0.181,-0.1754,-0.1693,-0.1792,-0.1725,-0.1733,-0.1737,-0.1733,-0.1735,-0.1747,-0.1664,-0.1666,-0.1668,-0.1668,0,-0.1279,-0.1298,-0.1378,-0.1432,-0.1516,-0.1537,-0.1599,-0.1629,-0.1671,-0.1778,-0.1758,-0.1777,-0.1835,-0.1736,-0.1681,-0.1614,-0.1588,-0.1537,-0.1554,-0.157,-0.1541,-0.1519,-0.1347,0,0,0,0,0,-0.1207,-0.1214,-0.1262,-0.1313,-0.1389,-0.1426,-0.1535,-0.1599,-0.1708,-0.1635,-0.169,-0.1644,-0.1573,-0.159,-0.1485,-0.1614,-0.1593,-0.1487,-0.1544,-0.1588,-0.1604,-0.1582,0,0,0,0,0,0,-0.116,-0.12,-0.1215,-0.1191,-0.1199,-0.1259,-0.1319,-0.1399,-0.137,-0.1486,-0.1451,-0.1537,-0.1486,-0.1587,-0.1443,-0.1446,-0.1447,-0.1512,-0.1507,-0.1579,-0.1594,-0.1606,-0.1589,0,0,0,0,0]},{"header":{"parameterUnit":"m.s-1","parameterCategory":2,"la1":30.2991,"la2":30.254,"lo1":-89.0895,"lo2":-89.0444,"dy":0.0017,"dx":0.0017,"nx":28,"ny":28,"refTime":"2024-04-14T21:00:00:Z","depth":"4","parameterNumber":3,"parameterNumberName":"V-component_of_CURRENTS"},"data":[0,0,0,0,0,0,0,0,0,0,0,0,0,0,0,0,0,0,0,0,0,0,0,0,0,0,0,0,0,0,0,0,0,0,0,0,0,0,0,0,0,0,0,0,0,0,0,0,0,0,0,0,0,0,0,0,0,0,-0.0307,-0.0307,0,-0.026,-0.026,-0.0259,-0.0217,-0.0216,-0.0216,-0.0216,-0.0107,-0.0104,-0.0102,0,0,0,0,0,0,0,0,0,0,0,0,0,-0.0324,-0.0324,-0.0307,-0.0307,-0.0306,-0.026,-0.026,-0.0259,-0.0217,-0.0216,-0.0216,-0.0215,-0.0107,-0.0104,-0.0101,0,0,0,0,0,0,0,0,0,0,0,0,0,-0.03,-0.0324,-0.0307,-0.028,-0.0278,-0.026,-0.0259,-0.0259,-0.0217,-0.0216,-0.0216,-0.0215,-0.0108,-0.0105,-0.0101,-0.009,0,0,-0.0089,-0.0088,0,0,0,0,0,0,0,0,-0.0301,-0.0299,-0.0285,-0.0282,-0.0279,-0.0245,-0.0226,-0.0199,-0.0217,-0.0239,-0.0216,-0.0215,-0.0148,-0.0141,-0.0133,-0.0085,-0.008,-0.0089,-0.0087,-0.0085,-0.0084,0,0,0,0,0,0,0,-0.0303,-0.0301,-0.0287,-0.0284,-0.0281,-0.0259,-0.0255,-0.022,-0.0195,-0.0237,-0.0234,-0.0231,-0.0146,-0.0137,-0.013,-0.0078,-0.0089,-0.0086,-0.0084,-0.0082,-0.0001,-0.0002,0,0,0,0,0,0,-0.0314,-0.0303,-0.0289,-0.0286,-0.029,-0.0259,-0.0255,-0.0255,-0.0197,-0.0188,-0.0231,-0.0229,-0.0144,-0.0134,-0.0126,-0.01,-0.0085,-0.0082,-0.0079,-0.0001,-0.0001,-0.0002,0,0,0,0,0,0,-0.0315,-0.0313,-0.0291,-0.0294,-0.0289,-0.026,-0.0261,-0.0255,-0.0247,-0.0194,-0.0183,-0.023,-0.0143,-0.0131,-0.0099,-0.0095,-0.008,-0.0076,-0.0001,-0.0001,-0.0001,-0.0053,0,0,0,0,0,0,-0.0315,-0.0314,-0.0323,-0.0295,-0.029,-0.0286,-0.0261,-0.0254,-0.0246,-0.0243,-0.0189,-0.0178,-0.0141,-0.0105,-0.0095,-0.009,-0.0074,-0.0001,-0.0001,-0.0001,-0.0051,-0.0055,-0.0058,0,0,0,0,0,-0.0316,-0.0331,-0.0324,-0.0322,-0.0302,-0.0286,-0.0282,-0.0257,-0.0247,-0.0247,-0.0211,-0.018,-0.01,-0.0103,-0.0091,-0.0084,-0.0001,-0.0001,-0.0001,-0.005,-0.0054,-0.0058,0,0,0,0,0,0,-0.0343,-0.0327,-0.0319,-0.0328,-0.0311,-0.0279,-0.0282,-0.0264,-0.0237,-0.0234,-0.0183,-0.017,-0.0143,-0.0108,-0.0113,-0.0062,-0.0044,-0.0043,-0.0085,-0.0089,-0.0092,-0.0092,-0.007,0,0,0,0,0,-0.0355,-0.0363,-0.0338,-0.0347,-0.0342,-0.0314,-0.0307,-0.029,-0.0261,-0.0249,-0.0213,-0.0171,-0.0136,-0.0109,-0.0078,-0.0048,-0.0008,-0.0035,-0.0039,-0.0042,-0.0035,0.0026,0.0029,-0.0003,-0.0003,-0.0003,0,0,-0.0368,-0.0361,-0.0366,-0.0354,-0.034,-0.0335,-0.0308,-0.0302,-0.0292,-0.0241,-0.0222,-0.0188,-0.0134,-0.0104,-0.0087,-0.0072,-0.0016,-0.0043,-0.0046,-0.0036,0.0026,0.0029,0.0032,-0.0003,-0.0003,-0.0003,0,0,-0.0396,-0.0393,-0.0406,-0.0395,-0.038,-0.036,-0.0361,-0.0333,-0.0316,-0.0295,-0.0255,-0.0216,-0.0169,-0.0121,-0.0091,-0.0093,-0.0045,-0.0089,-0.0094,-0.0036,-0.0033,-0.0029,0.0008,0.0016,-0.0081,-0.0081,-0.0081,0,-0.0414,-0.0424,-0.0407,-0.0412,-0.0406,-0.0374,-0.0378,-0.0357,-0.0321,-0.0302,-0.0296,-0.0214,-0.0172,-0.0114,-0.0115,-0.0099,-0.0068,-0.0084,-0.004,-0.0036,-0.0031,0.0007,0.0015,-0.0083,-0.0083,-0.0083,-0.0083,0,-0.0444,-0.0452,-0.0458,-0.0453,-0.0444,-0.0444,-0.0412,-0.0399,-0.0377,-0.0345,-0.03,-0.0243,-0.0187,-0.0171,-0.0141,-0.0088,-0.0079,-0.0061,-0.003,-0.0031,0.0008,0.0019,-0.0087,-0.0086,-0.0085,-0.0085,0,0,-0.0478,-0.048,-0.0482,-0.0486,-0.0466,-0.0461,-0.0445,-0.0413,-0.0396,-0.0356,-0.0322,-0.0258,-0.0223,-0.0187,-0.0142,-0.0087,-0.0035,-0.0064,-0.006,-0.0029,0.0078,0.0053,0.0062,-0.0012,-0.001,-0.0009,0.0086,0,-0.0505,-0.053,-0.0516,-0.0529,-0.0537,-0.0501,-0.0488,-0.0453,-0.0416,-0.0376,-0.0303,-0.026,-0.0229,-0.0203,-0.0143,-0.0063,-0.0008,-0.0063,0.0077,0.0081,0.0058,0.0073,-0.0003,0.0094,0.0097,0.0098,0.01,0,-0.0532,-0.0547,-0.0572,-0.0566,-0.0565,-0.0567,-0.0535,-0.0517,-0.0447,-0.0416,-0.0352,-0.0294,-0.0206,-0.0185,-0.004,-0.008,-0.0005,0.0056,0.0062,0.0068,0.0075,0.0101,0.0119,0.0117,0.0116,0.0114,0.0113,0,-0.0565,-0.0578,-0.0603,-0.0604,-0.0595,-0.0596,-0.0586,-0.0533,-0.0514,-0.0439,-0.0412,-0.0303,-0.0247,-0.0138,-0.0013,-0.0023,0.0142,0.0149,0.0198,0.0197,0.0213,0.0209,0.0257,0.0256,0.0256,0.0256,0.0256,0,-0.0591,-0.061,-0.0628,-0.0643,-0.0668,-0.064,-0.0644,-0.0614,-0.0561,-0.0532,-0.0439,-0.0386,-0.0231,-0.0118,-0.0012,0.012,0.0148,0.0204,0.0227,0.0186,0.0177,0.022,0.0214,0.026,0.0259,0.0258,0.0257,0,-0.0616,-0.0629,-0.0662,-0.0677,-0.0688,-0.0706,-0.0702,-0.0693,-0.0641,-0.0599,-0.0576,-0.0437,-0.0291,-0.0141,0.0049,0.0117,0.0249,0.0292,0.0228,0.0244,0.0262,0.0253,0.0353,0.0353,0.0353,0.0353,0.0353,0,-0.0628,-0.0652,-0.0702,-0.0734,-0.0749,-0.0773,-0.0785,-0.0745,-0.0724,-0.0627,-0.06,-0.0454,-0.0351,-0.0101,0.0049,0.0248,0.0273,0.033,0.0305,0.0263,0.0276,0.0266,0.0257,0.0353,0.0353,0.0353,0.0353,0,-0.0652,-0.0677,-0.0708,-0.0783,-0.082,-0.0845,-0.0853,-0.084,-0.0774,-0.0734,-0.0602,-0.0461,-0.0295,-0.0101,0.0055,0.0196,0.0285,0.0331,0.0331,0.0309,0.0265,0.0275,0.0266,0.0354,0.0354,0.0354,0.0354,0,-0.0669,-0.0704,-0.0758,-0.0814,-0.0871,-0.0895,-0.0893,-0.0847,-0.0812,-0.0692,-0.0648,-0.0461,-0.034,-0.0127,0.0018,0.0151,0.0179,0.0206,0.0214,0.0216,0.0141,0.0063,0.0118,0,0,0,0,0,-0.068,-0.0723,-0.0784,-0.0844,-0.09,-0.0928,-0.0925,-0.0903,-0.0839,-0.0753,-0.0694,-0.0535,-0.0297,-0.0181,-0.005,-0.0001,0.0183,0.0152,0.0214,0.0355,0.0355,0.0288,0,0,0,0,0,0,-0.069,-0.0753,-0.0784,-0.0855,-0.0901,-0.0949,-0.0947,-0.0906,-0.0836,-0.0756,-0.0619,-0.0532,-0.0293,-0.0377,-0.0058,-0.0015,0.0035,0.0273,0.0275,0.0355,0.0355,0.0354,0.0286,0,0,0,0,0]}]]